SCP
1 1 1 1 1 0 0 0 0 0 0 0 0 0 0 0 0 0 0 0 0 0 0 0 0 0 0 0 0 0 0 0 0 0 0 0 0 0 0 0 0 0 0
1 1 1 0 0 0 0 0 0 0 0 0 0 0 0 0 0 0 0 0 0 0 0 0 0 0 0 0 0 0 0 0 0 0 0 0 0 0 0 0 0 0 0
0 0 0 0 0 0 0 0 0 0 0 0 0 0 0 0 0 0 0 0 0 0 0 0 0 0 0 0 0 0 0 0 0 0 0 0 0 0 0 0 0 0 0
0 0 0 0 0 0 0 0 0 0 0 0 0 0 0 0 0 0 0 0 0 0 0 0 0 0 0 0 0 0 0 0 0 0 0 0 0 0 0 0 0 0 0
0 0 0 0 0 0 0 0 0 0 0 0 0 0 0 0 0 0 0 0 0 0 0 0 0 0 0 0 0 0 0 0 0 0 0 0 0 0 0 0 0 0 0
0 0 0 0 0 0 0 0 0 0 0 0 0 0 0 0 0 0 0 0 0 0 0 0 0 0 0 0 0 0 0 0 0 0 0 0 0 0 0 0 0 0 0
0 0 0 0 0 0 0 0 0 0 0 0 0 0 0 0 0 0 0 0 0 0 0 0 0 0 0 0 0 0 0 0 0 0 0 0 0 0 0 0 0 0 0
0 0 0 0 0 0 0 0 0 0 0 0 0 0 0 0 0 0 0 0 0 0 0 0 0 0 0 0 0 0 0 0 0 0 0 0 0 0 0 0 0 0 0
0 0 0 0 0 0 0 0 0 0 0 0 0 0 0 0 0 0 0 0 0 0 0 0 0 0 0 0 0 0 0 0 0 0 0 0 0 0 0 0 0 0 0
0 0 0 0 0 0 0 0 0 0 0 0 0 0 0 0 0 0 0 0 0 0 0 0 0 0 0 0 0 0 0 0 0 0 0 0 0 0 0 0 0 0 0
0 0 0 0 0 0 0 0 0 0 0 0 0 0 0 0 0 0 0 0 0 0 0 0 0 0 0 0 0 0 0 0 0 0 0 0 0 0 0 0 0 0 0
0 0 0 0 0 0 0 0 0 0 0 0 0 0 0 0 0 0 0 0 0 0 0 0 0 0 0 0 0 0 0 0 0 0 0 0 0 0 0 0 0 0 0
0 0 0 0 0 0 0 0 0 0 0 0 0 0 0 0 0 0 0 0 0 0 0 0 0 0 0 0 0 0 0 0 0 0 0 0 0 0 0 0 0 0 0
0 0 0 0 0 0 0 0 0 0 0 0 0 0 0 0 0 0 0 0 0 0 0 0 0 0 0 0 0 0 0 0 0 0 0 0 0 0 0 0 0 0 0
0 0 0 0 0 0 0 0 0 0 0 0 0 0 0 0 0 0 0 0 0 0 0 0 0 0 0 0 0 0 0 0 0 0 0 0 0 0 0 0 0 0 0
0 0 0 0 0 0 0 0 0 0 0 0 0 0 0 0 0 0 0 0 0 0 0 0 0 0 0 0 0 0 0 0 0 0 0 0 0 0 0 0 0 0 0
0 0 0 0 0 0 0 0 0 0 0 0 0 0 0 0 0 0 0 0 0 0 0 0 0 0 0 0 0 0 0 0 0 0 0 0 0 0 0 0 0 0 0
0 0 0 0 0 0 0 0 0 0 0 0 0 0 0 0 0 0 0 0 0 0 0 0 0 0 0 0 0 0 0 0 0 0 0 0 0 0 0 0 0 0 0
0 0 0 0 0 0 0 0 0 0 0 0 0 0 0 0 0 0 0 0 0 0 0 0 0 0 0 0 0 0 0 0 0 0 0 0 0 0 0 0 0 0 0
0 0 0 0 0 0 0 0 0 0 0 0 0 0 0 0 0 0 0 0 0 0 0 0 0 0 0 0 0 0 0 0 0 0 0 0 0 0 0 0 0 0 0
0 0 0 0 0 0 0 0 0 0 0 0 0 0 0 0 0 0 0 0 0 0 0 0 0 0 0 0 0 0 0 0 0 0 0 0 0 0 0 0 0 0 0
0 0 0 0 0 0 0 0 0 0 0 0 0 0 0 0 0 0 0 0 0 0 0 0 0 0 0 0 0 0 0 0 0 0 0 0 0 0 0 0 0 0 0
0 0 0 0 0 0 0 0 0 0 0 0 0 0 0 0 0 0 0 0 0 0 0 0 0 0 0 0 0 0 0 0 0 0 0 0 0 0 0 0 0 0 0
0 0 0 0 0 0 0 0 0 0 0 0 0 0 0 0 0 0 0 0 0 0 0 0 0 0 0 0 0 0 0 0 0 0 0 0 0 0 0 0 0 0 0
0 0 0 0 0 0 0 0 0 0 0 0 0 0 0 0 0 0 0 0 0 0 0 0 0 0 0 0 0 0 0 0 0 0 0 0 0 0 0 0 0 0 0
0 0 0 0 0 0 0 0 0 0 0 0 0 0 0 0 0 0 0 0 0 0 0 0 0 0 0 0 0 0 0 0 0 0 0 0 0 0 0 0 0 0 0
Wind_Speed
2 2 1 1 0 1 1 0 0 0 1 1 1 2 2 2 2 2 2 2 3 3 3 3 2 2 1 2 1 1 1 1 1 1 1 1 1 2 2 3 3 3 3
2 2 1 1 0 0 0 0 0 0 1 1 1 2 2 2 2 3 3 3 3 3 3 3 3 2 2 2 2 2 1 1 1 1 1 1 2 3 3 3 3 3 3
2 2 2 1 0 0 0 0 1 1 1 1 1 2 2 2 3 3 3 3 3 3 3 3 2 2 2 2 2 2 2 1 1 1 2 1 2 3 2 3 3 2 3
2 2 2 1 0 0 0 0 0 0 1 1 1 2 2 3 3 3 4 3 3 3 3 2 2 2 2 2 2 2 2 1 1 1 2 1 2 2 2 2 2 2 2
2 2 2 2 1 0 1 1 0 0 1 1 1 2 2 2 4 5 4 4 3 3 3 3 2 2 2 2 2 3 3 2 1 1 1 1 1 1 2 2 2 2 2
2 2 2 3 2 1 1 1 1 1 2 2 2 2 3 3 4 5 5 4 4 3 3 3 2 1 1 1 2 3 3 2 2 1 1 1 1 1 1 1 1 1 1
3 2 3 3 3 2 1 2 1 1 1 2 2 2 2 3 3 4 5 4 4 4 3 3 3 3 2 2 2 4 3 3 3 1 2 2 1 1 1 2 1 1 1
3 3 3 3 3 2 2 1 1 1 1 2 2 2 1 2 3 4 5 4 4 4 3 2 2 2 3 3 3 3 2 1 2 2 2 2 2 1 2 2 2 2 2
3 2 3 3 2 2 2 1 0 1 1 2 2 2 1 2 2 3 3 4 3 4 3 2 1 1 2 3 3 3 3 2 2 2 3 3 3 4 3 1 2 1 1
3 2 2 2 2 2 2 2 1 1 2 2 2 2 2 2 2 2 2 3 3 3 2 1 1 1 1 2 2 3 3 3 3 2 3 4 4 5 5 4 2 2 1
2 2 2 1 1 1 2 1 2 2 2 2 2 2 2 2 2 3 3 2 3 3 3 2 1 1 2 3 3 3 4 4 4 3 3 3 3 3 3 4 3 2 2
2 2 2 1 1 1 1 1 2 2 3 3 3 3 3 2 3 3 4 5 4 3 4 3 2 3 5 6 5 6 7 5 4 3 2 2 2 3 3 4 4 4 4
2 2 2 2 1 1 2 2 2 3 3 3 2 2 1 2 2 4 5 6 6 4 4 6 7 8 8 7 9 9 6 4 4 3 3 3 3 3 2 2 3 4 4
3 2 2 2 2 2 2 2 2 2 2 2 2 2 1 1 0 1 2 3 4 4 4 6 8 10 8 8 7 6 5 5 4 3 3 3 3 3 3 3 3 3 3
3 2 2 3 3 2 2 2 2 2 1 2 2 3 3 2 1 2 2 3 3 2 4 4 4 4 4 4 4 4 4 4 4 4 4 3 3 3 3 3 3 3 3
3 3 3 3 3 3 3 3 4 5 5 5 5 5 3 4 4 4 4 5 5 3 3 4 5 5 5 4 3 3 3 3 4 4 3 3 3 3 3 3 3 4 4
3 3 3 3 3 3 3 3 3 5 8 9 9 9 9 9 8 8 7 7 7 3 3 5 5 4 4 4 4 3 3 2 2 3 2 3 3 3 3 3 3 3 3
4 4 4 3 3 3 3 4 4 4 3 4 8 12 13 12 12 11 7 4 6 5 5 6 5 5 5 4 4 3 3 2 2 3 3 3 3 3 3 3 3 4 4
4 4 4 4 4 4 4 4 4 4 3 3 3 5 10 11 11 11 6 5 7 7 6 5 4 4 4 4 3 3 3 3 3 3 3 3 3 3 3 4 4 6 6
5 6 6 5 5 5 4 4 3 3 3 3 3 2 2 3 4 5 6 6 7 7 6 5 4 4 3 3 3 4 3 3 3 3 3 3 3 3 4 5 5 4 4
5 5 7 6 5 5 4 3 3 4 4 3 3 3 3 4 5 5 4 4 5 5 5 4 4 4 4 3 3 3 3 2 2 2 2 3 4 3 4 4 4 4 4
4 4 5 5 5 4 4 3 4 4 5 4 4 4 5 5 4 4 3 3 3 4 3 3 4 4 3 3 3 3 2 2 3 3 3 3 4 4 4 4 4 4 4
5 5 4 4 4 4 5 4 4 4 4 4 4 4 3 3 3 3 4 3 3 3 3 2 3 4 4 3 3 2 2 2 2 3 3 4 4 5 4 5 6 6 5
6 6 5 4 4 4 4 3 4 4 4 3 3 4 3 3 3 3 3 3 2 2 3 3 3 4 4 3 2 2 2 2 4 3 4 4 5 5 5 5 6 7 6
6 5 4 4 3 3 3 3 3 4 4 3 3 4 4 3 3 3 2 2 3 3 4 4 3 3 4 3 3 3 3 3 3 4 5 5 6 6 6 8 7 6 7
5 4 3 3 2 2 2 3 3 3 3 3 3 3 3 3 3 2 2 2 3 3 4 4 5 5 4 3 3 3 2 3 3 4 4 5 6 6 7 6 8 7 7
Wind_Direction
163 157 148 147 209 282 263 249 354 358 326 321 322 321 324 329 337 323 323 327 322 323 323 325 317 315 314 299 293 271 256 236 238 260 235 206 214 229 227 230 209 196 192
132 128 110 97 51 336 346 356 343 309 305 317 321 322 327 353 344 332 339 346 336 334 336 339 330 315 322 317 324 314 295 256 220 237 233 218 228 228 229 232 224 210 180
126 117 103 105 65 26 343 322 359 345 337 332 337 338 348 354 347 347 355 358 343 335 331 327 323 324 326 324 323 317 304 292 236 229 246 235 233 230 232 247 239 227 205
139 138 132 131 122 155 246 105 38 335 302 316 344 336 358 3 360 5 4 350 340 335 330 326 324 328 330 326 321 326 322 313 282 246 243 229 234 234 226 243 240 236 235
160 163 159 154 139 155 142 101 146 268 304 354 354 351 10 14 12 11 350 341 341 331 332 337 339 352 9 341 339 342 334 307 290 271 253 241 235 236 242 249 240 234 232
173 178 161 152 158 166 129 108 69 24 4 6 1 359 358 10 28 16 355 330 322 319 318 314 307 302 356 318 307 300 298 307 318 311 308 288 268 250 268 270 261 260 249
180 185 167 163 163 154 130 91 61 26 360 349 337 343 5 6 0 352 344 320 305 299 297 298 314 349 354 325 301 289 269 253 243 257 286 282 298 331 308 292 289 274 263
179 187 172 170 161 152 133 111 89 5 329 318 310 315 334 343 337 328 326 306 294 296 300 302 302 332 351 344 318 312 309 282 230 218 261 292 314 316 286 272 266 268 262
184 185 179 172 157 157 140 136 167 262 292 292 284 280 298 313 311 309 317 307 303 307 301 321 323 359 4 351 325 311 313 308 243 220 232 263 274 276 273 288 291 287 285
184 186 169 161 164 162 149 171 211 265 269 273 286 273 268 285 295 283 288 292 305 309 304 297 20 10 4 353 313 304 303 305 314 299 260 253 248 246 237 225 239 251 268
182 174 154 152 163 167 166 189 222 250 268 272 278 267 251 249 248 237 248 271 297 311 314 316 337 325 298 293 284 274 274 290 289 276 267 250 234 228 222 221 220 217 234
172 167 153 156 213 181 178 223 241 252 261 262 253 245 242 226 233 230 240 250 271 293 298 311 312 306 294 288 276 269 278 287 274 267 263 260 246 231 220 212 216 219 218
169 162 165 184 203 211 208 229 241 246 255 264 265 253 240 216 212 231 240 259 266 264 287 299 298 288 288 276 258 261 267 258 251 250 246 245 242 239 227 216 225 223 226
175 178 189 199 207 221 244 250 256 272 269 280 290 298 305 299 317 216 250 253 261 261 279 292 286 275 269 267 270 252 233 234 236 244 242 237 239 242 240 226 225 224 228
176 187 212 220 214 213 225 257 270 290 297 285 302 312 312 312 329 325 304 311 321 346 326 293 281 271 261 254 247 239 231 221 228 236 235 241 242 238 239 229 225 231 233
190 200 220 229 218 214 216 229 238 241 244 241 244 255 275 266 264 282 292 294 300 314 305 282 283 279 278 276 272 258 239 231 230 230 229 235 243 241 242 238 236 237 240
205 210 231 232 231 226 227 232 240 239 241 247 248 246 244 257 269 276 284 302 299 278 256 267 268 270 272 271 269 267 262 249 236 236 239 244 251 255 253 250 247 248 249
215 220 239 246 246 249 246 244 246 248 238 238 236 235 241 248 255 262 276 304 283 249 241 253 256 256 257 257 260 268 267 258 252 246 240 241 241 248 255 259 255 254 253
223 231 231 248 251 256 260 260 259 260 262 263 256 226 229 241 252 257 247 243 260 264 262 259 254 256 260 259 253 252 252 253 256 256 253 248 246 254 261 262 263 263 261
221 230 236 248 254 255 256 261 266 269 272 276 279 266 201 212 239 245 226 228 242 255 260 264 263 261 263 267 264 261 258 250 249 253 260 261 260 257 262 265 268 269 260
225 223 221 237 249 257 262 269 275 277 278 279 277 274 246 242 255 256 246 232 239 255 263 264 268 269 267 265 267 275 283 289 281 271 272 274 271 268 271 271 272 275 273
240 231 220 230 241 247 254 259 266 273 276 277 282 277 239 245 270 283 279 264 251 248 264 274 282 287 287 290 296 285 275 277 286 292 287 284 283 275 273 275 277 275 276
248 248 232 226 233 235 242 251 259 267 276 280 284 287 270 262 278 285 291 295 302 300 298 299 300 305 307 295 284 286 293 293 285 284 285 284 284 284 279 277 280 281 281
245 251 249 235 231 240 247 254 264 274 280 282 288 289 286 278 280 286 289 299 309 303 301 300 296 301 311 317 313 316 331 324 314 302 293 289 288 290 290 283 277 278 277
249 250 252 246 237 244 253 261 272 281 286 289 290 295 298 301 305 312 326 339 330 321 320 310 298 304 310 314 317 324 324 320 315 316 305 292 288 290 290 289 285 283 279
251 257 261 261 259 263 273 273 280 291 295 302 306 311 319 325 329 331 326 321 310 300 300 297 301 308 314 332 355 5 352 328 318 307 299 291 288 286 287 284 287 287 286